Time,TemperatureF,DewpointF,PressureIn,WindDirection,WindDirectionDegrees,WindSpeedMPH,WindSpeedGustMPH,Humidity,HourlyPrecipIn,Conditions,Clouds,dailyrainin,SoftwareType,DateUTC
2013-05-22 00:12:00,77.7,-30.2,29.57,ESE,112,2.7,-999.0,1,-99.99,,,0.00,Acu-Link.com,2013-05-22 05:12:00,
2013-05-22 00:27:00,77.2,-30.5,29.57,SE,135,0.0,-999.0,1,-99.99,,,0.00,Acu-Link.com,2013-05-22 05:27:00,
2013-05-22 00:43:00,77.7,-30.2,29.57,ESE,112,3.2,-999.0,1,-99.99,,,0.00,Acu-Link.com,2013-05-22 05:43:00,
2013-05-22 00:58:00,77.4,-30.4,29.56,ESE,112,3.7,-999.0,1,-99.99,,,0.00,Acu-Link.com,2013-05-22 05:58:00,
2013-05-22 01:13:00,77.0,-30.6,29.55,East,90,2.2,-999.0,1,-99.99,,,0.00,Acu-Link.com,2013-05-22 06:13:00,
2013-05-22 01:29:00,76.3,-31.0,29.55,SE,135,4.2,-999.0,1,-99.99,,,0.00,Acu-Link.com,2013-05-22 06:29:00,
2013-05-22 01:44:00,76.6,22.1,29.54,NE,45,3.7,-999.0,13,-99.99,,,0.00,Acu-Link.com,2013-05-22 06:44:00,
2013-05-22 01:59:00,72.9,-33.1,29.53,NE,45,8.9,-999.0,1,-99.99,,,0.00,Acu-Link.com,2013-05-22 06:59:00,
2013-05-22 02:14:00,71.2,-34.1,29.56,ENE,67,8.9,-999.0,1,-99.99,,,0.00,Acu-Link.com,2013-05-22 07:14:00,
2013-05-22 02:29:00,69.8,-14.5,29.56,SW,225,5.8,-999.0,3,-99.99,,,0.11,Acu-Link.com,2013-05-22 07:29:00,
2013-05-22 02:44:00,69.1,17.9,29.55,NNE,22,5.8,-999.0,14,-99.99,,,0.50,Acu-Link.com,2013-05-22 07:44:00,
2013-05-22 02:59:00,68.9,-35.5,29.53,NE,45,4.7,-999.0,1,-99.99,,,0.67,Acu-Link.com,2013-05-22 07:59:00,
2013-05-22 03:17:00,68.9,-35.5,29.54,North,0,9.4,-999.0,1,-99.99,,,0.94,Acu-Link.com,2013-05-22 08:17:00,
2013-05-22 03:32:00,69.1,-35.4,29.51,NNE,22,12.5,-999.0,1,-99.99,,,1.00,Acu-Link.com,2013-05-22 08:32:00,
2013-05-22 03:48:00,70.0,-34.8,29.55,NNE,22,11.4,-999.0,1,-99.99,,,1.19,Acu-Link.com,2013-05-22 08:48:00,
2013-05-22 04:29:00,70.0,-34.8,29.58,South,180,4.2,-999.0,1,-99.99,,,1.51,Acu-Link.com,2013-05-22 09:29:00,
2013-05-22 04:45:00,70.7,-34.4,29.57,West,270,3.7,-999.0,1,-99.99,,,1.56,Acu-Link.com,2013-05-22 09:45:00,
2013-05-22 05:00:00,70.7,-34.4,29.53,South,180,6.3,-999.0,1,-99.99,,,1.65,Acu-Link.com,2013-05-22 10:00:00,
2013-05-22 05:15:00,70.9,-34.3,29.54,SSE,157,4.2,-999.0,1,-99.99,,,1.67,Acu-Link.com,2013-05-22 10:15:00,
2013-05-22 05:30:00,71.1,-34.2,29.56,ESE,112,3.7,-999.0,1,-99.99,,,1.68,Acu-Link.com,2013-05-22 10:30:00,
2013-05-22 05:45:00,70.5,-34.5,29.50,NE,45,3.7,-999.0,1,-99.99,,,1.76,Acu-Link.com,2013-05-22 10:45:00,
2013-05-22 06:00:00,69.6,-35.1,29.49,ESE,112,15.0,-999.0,1,-99.99,,,1.77,Acu-Link.com,2013-05-22 11:00:00,
2013-05-22 06:15:00,70.3,-34.6,29.43,SE,135,8.3,-999.0,1,-99.99,,,1.78,Acu-Link.com,2013-05-22 11:15:00,
2013-05-22 06:30:00,70.7,-34.4,29.45,South,180,4.2,-999.0,1,-99.99,,,1.79,Acu-Link.com,2013-05-22 11:30:00,
2013-05-22 06:46:00,70.9,-34.3,29.50,WSW,247,1.1,-999.0,1,-99.99,,,1.79,Acu-Link.com,2013-05-22 11:46:00,
2013-05-22 07:01:00,71.2,-34.1,29.51,NE,45,2.7,-999.0,1,-99.99,,,1.79,Acu-Link.com,2013-05-22 12:01:00,
2013-05-22 07:16:00,71.4,-34.0,29.52,North,0,3.2,-999.0,1,-99.99,,,1.79,Acu-Link.com,2013-05-22 12:16:00,
2013-05-22 07:32:00,72.0,-33.6,29.55,NE,45,5.8,-999.0,1,-99.99,,,1.79,Acu-Link.com,2013-05-22 12:32:00,
2013-05-22 07:47:00,71.8,-33.7,29.55,ESE,112,3.2,-999.0,1,-99.99,,,1.79,Acu-Link.com,2013-05-22 12:47:00,
2013-05-22 08:02:00,71.6,-33.9,29.59,NNW,337,4.7,-999.0,1,-99.99,,,1.79,Acu-Link.com,2013-05-22 13:02:00,
2013-05-22 08:18:00,71.8,-33.7,29.59,ESE,112,5.8,-999.0,1,-99.99,,,1.79,Acu-Link.com,2013-05-22 13:18:00,
2013-05-22 08:33:00,72.0,-33.6,29.62,NNE,22,3.7,-999.0,1,-99.99,,,1.79,Acu-Link.com,2013-05-22 13:33:00,
2013-05-22 08:48:00,71.6,-33.9,29.61,ESE,112,5.3,-999.0,1,-99.99,,,1.79,Acu-Link.com,2013-05-22 13:48:00,
2013-05-22 09:03:00,70.7,-34.4,29.62,ENE,67,6.8,-999.0,1,-99.99,,,1.79,Acu-Link.com,2013-05-22 14:03:00,
2013-05-22 09:18:00,71.2,-34.1,29.61,ENE,67,3.2,-999.0,1,-99.99,,,1.79,Acu-Link.com,2013-05-22 14:18:00,
2013-05-22 09:33:00,71.4,-34.0,29.60,NE,45,5.8,-999.0,1,-99.99,,,1.79,Acu-Link.com,2013-05-22 14:33:00,
2013-05-22 09:48:00,71.8,-33.7,29.61,NE,45,3.2,-999.0,1,-99.99,,,1.79,Acu-Link.com,2013-05-22 14:48:00,
2013-05-22 10:04:00,72.1,-33.6,29.60,NE,45,4.2,-999.0,1,-99.99,,,1.79,Acu-Link.com,2013-05-22 15:04:00,
2013-05-22 10:19:00,73.4,54.7,29.62,North,0,2.7,-999.0,52,-99.99,,,1.79,Acu-Link.com,2013-05-22 15:19:00,
2013-05-22 10:34:00,74.3,25.2,29.63,ENE,67,2.7,-999.0,16,-99.99,,,1.79,Acu-Link.com,2013-05-22 15:34:00,
2013-05-22 10:49:00,77.4,-30.4,29.62,ENE,67,5.3,-999.0,1,-99.99,,,1.79,Acu-Link.com,2013-05-22 15:49:00,
2013-05-22 11:05:00,79.0,-29.4,29.62,ENE,67,3.2,-999.0,1,-99.99,,,1.79,Acu-Link.com,2013-05-22 16:05:00,
2013-05-22 11:20:00,80.1,-28.8,29.62,NNW,337,2.2,-999.0,1,-99.99,,,1.79,Acu-Link.com,2013-05-22 16:20:00,
2013-05-22 11:35:00,80.6,-28.5,29.62,ESE,112,3.2,-999.0,1,-99.99,,,1.79,Acu-Link.com,2013-05-22 16:35:00,
2013-05-22 11:50:00,81.0,-28.2,29.63,East,90,5.8,-999.0,1,-99.99,,,1.79,Acu-Link.com,2013-05-22 16:50:00,
2013-05-22 12:05:00,78.3,-29.9,29.63,SSE,157,3.2,-999.0,1,-99.99,,,1.79,Acu-Link.com,2013-05-22 17:05:00,
2013-05-22 12:20:00,79.3,-29.3,29.63,ENE,67,6.3,-999.0,1,-99.99,,,1.79,Acu-Link.com,2013-05-22 17:20:00,
2013-05-22 12:36:00,80.4,-28.6,29.62,SSE,157,6.3,-999.0,1,-99.99,,,1.79,Acu-Link.com,2013-05-22 17:36:00,
2013-05-22 12:51:00,81.3,-28.1,29.61,ESE,112,5.3,-999.0,1,-99.99,,,1.79,Acu-Link.com,2013-05-22 17:51:00,
2013-05-22 13:06:00,81.9,-27.7,29.62,NE,45,2.7,-999.0,1,-99.99,,,1.79,Acu-Link.com,2013-05-22 18:06:00,
2013-05-22 13:21:00,81.5,-27.9,29.62,ESE,112,1.1,-999.0,1,-99.99,,,1.79,Acu-Link.com,2013-05-22 18:21:00,
2013-05-22 13:37:00,84.2,-26.3,29.61,ENE,67,3.2,-999.0,1,-99.99,,,1.79,Acu-Link.com,2013-05-22 18:37:00,
2013-05-22 13:52:00,82.0,-27.7,29.60,East,90,4.2,-999.0,1,-99.99,,,1.79,Acu-Link.com,2013-05-22 18:52:00,
2013-05-22 14:07:00,84.2,-26.3,29.59,ESE,112,4.7,-999.0,1,-99.99,,,1.79,Acu-Link.com,2013-05-22 19:07:00,
2013-05-22 14:23:00,82.0,-27.7,29.60,ESE,112,4.7,-999.0,1,-99.99,,,1.79,Acu-Link.com,2013-05-22 19:23:00,
2013-05-22 14:38:00,82.9,-27.1,29.60,ENE,67,4.2,-999.0,1,-99.99,,,1.79,Acu-Link.com,2013-05-22 19:38:00,
2013-05-22 14:53:00,84.4,-26.2,29.60,ESE,112,3.2,-999.0,1,-99.99,,,1.79,Acu-Link.com,2013-05-22 19:53:00,
2013-05-22 15:08:00,83.1,-27.0,29.61,ESE,112,3.2,-999.0,1,-99.99,,,1.79,Acu-Link.com,2013-05-22 20:08:00,
2013-05-22 15:24:00,83.3,-26.9,29.61,ESE,112,4.7,-999.0,1,-99.99,,,1.79,Acu-Link.com,2013-05-22 20:24:00,
2013-05-22 15:39:00,82.9,-27.1,29.61,SSE,157,4.7,-999.0,1,-99.99,,,1.79,Acu-Link.com,2013-05-22 20:39:00,
2013-05-22 15:54:00,86.5,-25.0,29.61,ESE,112,6.3,-999.0,1,-99.99,,,1.79,Acu-Link.com,2013-05-22 20:54:00,
2013-05-22 16:09:00,86.0,-25.3,29.60,SSW,202,4.7,-999.0,1,-99.99,,,1.79,Acu-Link.com,2013-05-22 21:09:00,
2013-05-22 16:24:00,85.3,-25.7,29.61,SSE,157,6.8,-999.0,1,-99.99,,,1.79,Acu-Link.com,2013-05-22 21:24:00,
2013-05-22 16:40:00,84.7,-26.1,29.60,South,180,4.2,-999.0,1,-99.99,,,1.79,Acu-Link.com,2013-05-22 21:40:00,
2013-05-22 16:55:00,84.4,-26.2,29.60,South,180,3.7,-999.0,1,-99.99,,,1.79,Acu-Link.com,2013-05-22 21:55:00,
2013-05-22 17:10:00,84.0,-26.5,29.60,South,180,3.2,-999.0,1,-99.99,,,1.79,Acu-Link.com,2013-05-22 22:10:00,
2013-05-22 17:25:00,85.1,-25.8,29.60,South,180,3.2,-999.0,1,-99.99,,,1.79,Acu-Link.com,2013-05-22 22:25:00,
2013-05-22 17:40:00,85.5,-25.6,29.60,SSE,157,3.7,-999.0,1,-99.99,,,1.79,Acu-Link.com,2013-05-22 22:40:00,
2013-05-22 17:55:00,85.3,-25.7,29.60,SE,135,5.8,-999.0,1,-99.99,,,1.79,Acu-Link.com,2013-05-22 22:55:00,
2013-05-22 18:11:00,83.8,-26.6,29.60,ESE,112,2.7,-999.0,1,-99.99,,,1.79,Acu-Link.com,2013-05-22 23:11:00,
2013-05-22 18:26:00,82.8,-27.2,29.60,ESE,112,4.2,-999.0,1,-99.99,,,1.79,Acu-Link.com,2013-05-22 23:26:00,
2013-05-22 18:41:00,82.6,-27.3,29.59,ESE,112,3.2,-999.0,1,-99.99,,,1.79,Acu-Link.com,2013-05-22 23:41:00,
2013-05-22 18:56:00,81.7,-27.8,29.60,East,90,4.2,-999.0,1,-99.99,,,1.79,Acu-Link.com,2013-05-22 23:56:00,
2013-05-22 19:11:00,81.5,-27.9,29.60,South,180,0.0,-999.0,1,-99.99,,,1.79,Acu-Link.com,2013-05-23 00:11:00,
2013-05-22 19:26:00,81.0,-28.2,29.60,South,180,2.2,-999.0,1,-99.99,,,1.79,Acu-Link.com,2013-05-23 00:26:00,
2013-05-22 19:42:00,79.9,-28.9,29.61,SW,225,1.1,-999.0,1,-99.99,,,1.79,Acu-Link.com,2013-05-23 00:42:00,
2013-05-22 19:57:00,79.3,-29.3,29.61,SSE,157,0.0,-999.0,1,-99.99,,,1.79,Acu-Link.com,2013-05-23 00:57:00,
2013-05-22 20:12:00,78.4,-29.8,29.61,SSW,202,0.0,-999.0,1,-99.99,,,1.79,Acu-Link.com,2013-05-23 01:12:00,
2013-05-22 20:28:00,77.4,-30.4,29.60,West,270,2.7,-999.0,1,-99.99,,,1.79,Acu-Link.com,2013-05-23 01:28:00,
2013-05-22 20:43:00,77.0,-30.6,29.61,WSW,247,0.0,-999.0,1,-99.99,,,1.79,Acu-Link.com,2013-05-23 01:43:00,
2013-05-22 20:58:00,77.0,-30.6,29.61,South,180,1.1,-999.0,1,-99.99,,,1.79,Acu-Link.com,2013-05-23 01:58:00,
2013-05-22 21:13:00,76.5,-30.9,29.61,SSE,157,0.0,-999.0,1,-99.99,,,1.79,Acu-Link.com,2013-05-23 02:13:00,
2013-05-22 21:28:00,76.1,-31.2,29.61,SSE,157,1.7,-999.0,1,-99.99,,,1.79,Acu-Link.com,2013-05-23 02:28:00,
2013-05-22 21:44:00,75.9,-31.3,29.62,SW,225,0.0,-999.0,1,-99.99,,,1.79,Acu-Link.com,2013-05-23 02:44:00,
2013-05-22 21:59:00,76.1,-31.2,29.62,ESE,112,0.0,-999.0,1,-99.99,,,1.79,Acu-Link.com,2013-05-23 02:59:00,
2013-05-22 22:14:00,75.6,-31.5,29.63,ESE,112,0.0,-999.0,1,-99.99,,,1.79,Acu-Link.com,2013-05-23 03:14:00,
2013-05-22 22:30:00,75.0,-31.8,29.63,SE,135,0.0,-999.0,1,-99.99,,,1.79,Acu-Link.com,2013-05-23 03:30:00,
2013-05-22 22:45:00,75.7,-31.4,29.64,SE,135,0.0,-999.0,1,-99.99,,,1.79,Acu-Link.com,2013-05-23 03:45:00,
2013-05-22 23:00:00,74.8,-31.9,29.64,West,270,0.0,-999.0,1,-99.99,,,1.79,Acu-Link.com,2013-05-23 04:00:00,
2013-05-22 23:15:00,75.0,51.0,29.64,West,270,0.0,-999.0,43,-99.99,,,1.79,Acu-Link.com,2013-05-23 04:15:00,
2013-05-22 23:31:00,73.9,-32.5,29.64,NE,45,0.0,-999.0,1,-99.99,,,1.79,Acu-Link.com,2013-05-23 04:31:00,
2013-05-22 23:46:00,73.4,-32.8,29.64,SE,135,0.0,-999.0,1,-99.99,,,1.79,Acu-Link.com,2013-05-23 04:46:00,